[[{"header":{"parameterUnit":"m.s-1","parameterCategory":1,"la1":30.2991,"la2":30.254,"lo1":-89.0895,"lo2":-89.0444,"dy":0.0017,"dx":0.0017,"nx":28,"ny":28,"refTime":"2025-02-05T09:00:00:Z","depth":0,"parameterNumber":2,"parameterNumberName":"U-component_of_WINDS"},"data":[0,0,0,0,0,0,0,0,0,0,0,0,0,0,0,0,0,0,0,0,0,0,0,0,0,0,0,0,0,0,0,0,0,0,0,0,0,0,0,0,0,0,0,0,0,0,0,0,0,0,0,0,0,0,0,0,0,0,-1.6898,-1.6898,0,-1.6901,-1.6901,-1.6901,-1.6875,-1.6875,-1.6874,-1.6873,-1.6877,-1.6877,-1.6878,0,0,0,0,0,0,0,0,0,0,0,0,0,-1.6872,-1.6872,-1.6898,-1.6898,-1.6898,-1.6901,-1.6901,-1.6901,-1.6876,-1.6875,-1.6874,-1.6873,-1.6876,-1.6877,-1.6878,0,0,0,0,0,0,0,0,0,0,0,0,0,-1.688,-1.6873,-1.6898,-1.6886,-1.6885,-1.6901,-1.6901,-1.6901,-1.6876,-1.6875,-1.6874,-1.6873,-1.6876,-1.6877,-1.6878,-1.6906,0,0,-1.6882,-1.6882,0,0,0,0,0,0,0,0,-1.6879,-1.6881,-1.6888,-1.6887,-1.6885,-1.6887,-1.6893,-1.6903,-1.6876,-1.6879,-1.6873,-1.6872,-1.6881,-1.6882,-1.6884,-1.6907,-1.6907,-1.6882,-1.6882,-1.6883,-1.6883,0,0,0,0,0,0,0,-1.6879,-1.6881,-1.6899,-1.6888,-1.6886,-1.6881,-1.688,-1.6895,-1.6886,-1.6879,-1.6877,-1.6878,-1.688,-1.6883,-1.6884,-1.6907,-1.6882,-1.6883,-1.6883,-1.6884,-1.6953,-1.6954,0,0,0,0,0,0,-1.688,-1.688,-1.6899,-1.6899,-1.688,-1.6882,-1.6882,-1.6887,-1.6886,-1.6884,-1.6878,-1.6876,-1.6882,-1.6883,-1.6884,-1.6917,-1.6883,-1.6884,-1.6885,-1.6952,-1.6954,-1.6955,0,0,0,0,0,0,-1.6879,-1.6882,-1.6899,-1.6889,-1.6891,-1.6883,-1.689,-1.6888,-1.6891,-1.6885,-1.6884,-1.6883,-1.6881,-1.6883,-1.6901,-1.6917,-1.6884,-1.6886,-1.6951,-1.6953,-1.6954,-1.6984,0,0,0,0,0,0,-1.6879,-1.6882,-1.6892,-1.689,-1.6892,-1.6916,-1.6891,-1.6889,-1.6893,-1.689,-1.689,-1.6888,-1.688,-1.69,-1.6902,-1.6918,-1.6886,-1.6949,-1.6952,-1.6954,-1.6981,-1.6986,-1.699,0,0,0,0,0,-1.6878,-1.69,-1.6893,-1.6895,-1.6904,-1.6916,-1.6918,-1.6908,-1.6895,-1.6905,-1.6902,-1.6888,-1.6915,-1.6902,-1.6905,-1.6921,-1.6948,-1.6951,-1.6953,-1.6979,-1.6985,-1.699,0,0,0,0,0,0,-1.6904,-1.6899,-1.6891,-1.6913,-1.6915,-1.6912,-1.6925,-1.6914,-1.6921,-1.6918,-1.6906,-1.6906,-1.6926,-1.6926,-1.6911,-1.6949,-1.6929,-1.6933,-1.6948,-1.6954,-1.6958,-1.6957,-1.6887,0,0,0,0,0,-1.6913,-1.6923,-1.6918,-1.6938,-1.694,-1.6932,-1.6937,-1.693,-1.6932,-1.6932,-1.693,-1.6933,-1.6942,-1.6948,-1.6956,-1.6982,-1.6981,-1.6994,-1.6999,-1.7003,-1.7005,-1.7019,-1.7025,-1.6963,-1.6963,-1.6963,0,0,-1.693,-1.6928,-1.6935,-1.6943,-1.6944,-1.6955,-1.6933,-1.6946,-1.6954,-1.6934,-1.6951,-1.695,-1.6953,-1.6975,-1.6985,-1.6975,-1.7022,-1.7006,-1.7009,-1.701,-1.7023,-1.7028,-1.7034,-1.6965,-1.6965,-1.6965,0,0,-1.6966,-1.6967,-1.6983,-1.6985,-1.6987,-1.6982,-1.6986,-1.6985,-1.6983,-1.7001,-1.6986,-1.6997,-1.7012,-1.7014,-1.7018,-1.7057,-1.7046,-1.7061,-1.7084,-1.7098,-1.7103,-1.7107,-1.7121,-1.7126,-1.7063,-1.7064,-1.7064,0,-1.6987,-1.7003,-1.6993,-1.7007,-1.7011,-1.6995,-1.7012,-1.7014,-1.7018,-1.7022,-1.7011,-1.7031,-1.7031,-1.7054,-1.7064,-1.7067,-1.7072,-1.706,-1.7103,-1.7107,-1.7111,-1.7124,-1.7129,-1.7065,-1.7065,-1.7065,-1.7065,0,-1.7029,-1.7041,-1.7054,-1.7059,-1.7065,-1.708,-1.7073,-1.708,-1.7073,-1.7069,-1.7088,-1.7088,-1.7096,-1.7101,-1.7093,-1.7123,-1.7117,-1.7105,-1.7085,-1.7119,-1.7131,-1.7136,-1.7068,-1.7067,-1.7067,-1.7066,0,0,-1.7081,-1.7081,-1.7086,-1.7088,-1.709,-1.7099,-1.7114,-1.7122,-1.7128,-1.7133,-1.7145,-1.716,-1.7149,-1.7153,-1.7146,-1.7158,-1.7189,-1.7144,-1.7144,-1.7152,-1.7222,-1.723,-1.7236,-1.7182,-1.7183,-1.7184,-1.7222,0,-1.7116,-1.7141,-1.7134,-1.7159,-1.717,-1.7156,-1.7169,-1.7172,-1.717,-1.7179,-1.7176,-1.7187,-1.7172,-1.7174,-1.7185,-1.7183,-1.7203,-1.718,-1.7194,-1.7194,-1.7192,-1.7243,-1.7251,-1.7287,-1.7226,-1.7227,-1.7228,0,-1.7161,-1.7167,-1.7194,-1.7194,-1.7198,-1.721,-1.7218,-1.7227,-1.723,-1.7227,-1.7233,-1.7224,-1.7239,-1.7221,-1.7242,-1.7227,-1.7232,-1.7232,-1.7233,-1.7233,-1.7212,-1.7243,-1.7298,-1.7303,-1.7235,-1.7235,-1.7234,0,-1.7195,-1.721,-1.7228,-1.7231,-1.7232,-1.7241,-1.7242,-1.7245,-1.725,-1.7257,-1.726,-1.7269,-1.7273,-1.728,-1.7274,-1.7261,-1.7297,-1.7278,-1.7295,-1.7295,-1.7302,-1.7301,-1.7357,-1.7307,-1.7307,-1.7307,-1.7307,0,-1.7235,-1.7252,-1.7244,-1.7255,-1.7274,-1.7265,-1.7284,-1.7284,-1.7286,-1.7297,-1.7286,-1.7297,-1.7288,-1.7299,-1.7294,-1.7313,-1.7315,-1.7314,-1.7312,-1.7314,-1.7314,-1.7316,-1.7313,-1.7308,-1.7308,-1.7308,-1.7308,0,-1.7276,-1.7271,-1.729,-1.729,-1.7291,-1.7305,-1.7305,-1.7315,-1.7313,-1.7327,-1.733,-1.7327,-1.7338,-1.7333,-1.7345,-1.7342,-1.7366,-1.7362,-1.7365,-1.7363,-1.7381,-1.7379,-1.7439,-1.7447,-1.7393,-1.7393,-1.7394,0,-1.7301,-1.7314,-1.7316,-1.7322,-1.7324,-1.7335,-1.7341,-1.7334,-1.734,-1.7346,-1.7356,-1.7367,-1.7374,-1.7394,-1.7392,-1.7402,-1.7397,-1.7418,-1.7398,-1.74,-1.7397,-1.7396,-1.7397,-1.7421,-1.7422,-1.7422,-1.7423,0,-1.7346,-1.7344,-1.7352,-1.7361,-1.7368,-1.7374,-1.738,-1.7386,-1.7379,-1.7388,-1.7399,-1.7406,-1.7418,-1.7429,-1.7438,-1.744,-1.743,-1.7429,-1.7434,-1.7435,-1.7436,-1.7435,-1.7374,-1.7427,-1.7427,-1.7427,-1.7426,-1.7426,-1.7379,-1.739,-1.7393,-1.7404,-1.7407,-1.7413,-1.7423,-1.7422,-1.7432,-1.7442,-1.7437,-1.7451,-1.7455,-1.7466,-1.7469,-1.748,-1.7472,-1.7478,-1.748,-1.7481,-1.7484,-1.7436,-1.7482,-1.7482,-1.7481,-1.7481,-1.7481,0,-1.7423,-1.7425,-1.7435,-1.7443,-1.7452,-1.7443,-1.7449,-1.7456,-1.7468,-1.7473,-1.7482,-1.7496,-1.7506,-1.7507,-1.7517,-1.7526,-1.7522,-1.7528,-1.7527,-1.7528,-1.749,-1.7485,-1.7531,-1.7531,-1.7531,-1.7531,-1.7531,-1.7531,-1.7447,-1.7465,-1.7463,-1.7483,-1.7485,-1.7498,-1.7502,-1.7508,-1.7511,-1.7528,-1.7536,-1.7537,-1.754,-1.755,-1.756,-1.756,-1.7564,-1.7572,-1.757,-1.7535,-1.753,-1.7525,-1.752,-1.7573,-1.7573,-1.7607,-1.7607,-1.7607]},{"header":{"parameterUnit":"m.s-1","parameterCategory":1,"la1":30.2991,"la2":30.254,"lo1":-89.0895,"lo2":-89.0444,"dy":0.0017,"dx":0.0017,"nx":28,"ny":28,"refTime":"2025-02-05T09:00:00:Z","depth":0,"parameterNumber":3,"parameterNumberName":"V-component_of_WINDS"},"data":[0,0,0,0,0,0,0,0,0,0,0,0,0,0,0,0,0,0,0,0,0,0,0,0,0,0,0,0,0,0,0,0,0,0,0,0,0,0,0,0,0,0,0,0,0,0,0,0,0,0,0,0,0,0,0,0,0,0,1.6209,1.621,0,1.6256,1.6256,1.6257,1.6293,1.6293,1.6294,1.6294,1.634,1.634,1.6341,0,0,0,0,0,0,0,0,0,0,0,0,0,1.6151,1.6152,1.6209,1.621,1.621,1.6256,1.6256,1.6257,1.6293,1.6293,1.6294,1.6294,1.6339,1.634,1.6341,0,0,0,0,0,0,0,0,0,0,0,0,0,1.6184,1.6152,1.6209,1.6234,1.6236,1.6256,1.6256,1.6257,1.6293,1.6293,1.6294,1.6294,1.6339,1.634,1.6342,1.6339,0,0,1.6346,1.6346,0,0,0,0,0,0,0,0,1.6183,1.6187,1.6229,1.6232,1.6235,1.6269,1.6253,1.6285,1.6293,1.6271,1.6294,1.6295,1.6316,1.6319,1.6326,1.6341,1.6343,1.6346,1.6347,1.6347,1.6348,0,0,0,0,0,0,0,1.618,1.6185,1.6227,1.623,1.6233,1.6242,1.6248,1.6259,1.629,1.6273,1.6276,1.6281,1.6317,1.6325,1.6328,1.6344,1.6346,1.6347,1.6348,1.6348,1.6362,1.6362,0,0,0,0,0,0,1.6174,1.6183,1.6226,1.6229,1.621,1.6243,1.6249,1.6258,1.629,1.6295,1.6281,1.6283,1.6322,1.6326,1.6329,1.6331,1.6347,1.6348,1.6349,1.6363,1.6362,1.6362,0,0,0,0,0,0,1.6173,1.6178,1.6224,1.6207,1.6213,1.6243,1.6253,1.6258,1.6266,1.6295,1.6301,1.6283,1.6323,1.6328,1.6337,1.6333,1.6349,1.635,1.6363,1.6363,1.6362,1.6332,0,0,0,0,0,0,1.6171,1.6177,1.6176,1.6206,1.6214,1.6231,1.6252,1.6259,1.6269,1.6272,1.6299,1.6304,1.6324,1.6335,1.6339,1.6335,1.6351,1.6364,1.6363,1.6362,1.6333,1.633,1.6328,0,0,0,0,0,1.6169,1.6165,1.6176,1.6181,1.6214,1.6231,1.6235,1.6258,1.6268,1.6268,1.6287,1.6303,1.6333,1.6336,1.634,1.6337,1.6364,1.6363,1.6362,1.6335,1.6331,1.6328,0,0,0,0,0,0,1.6132,1.6169,1.6182,1.6188,1.6206,1.6237,1.6237,1.6253,1.6268,1.6271,1.6298,1.6304,1.6311,1.6325,1.6328,1.6337,1.6351,1.635,1.6328,1.6325,1.6322,1.6319,1.6352,0,0,0,0,0,1.6125,1.6136,1.6167,1.6169,1.6178,1.6206,1.6214,1.6231,1.6251,1.6258,1.6278,1.6296,1.631,1.6318,1.6332,1.6336,1.6343,1.6336,1.6333,1.633,1.633,1.6335,1.6332,1.6359,1.6359,1.6359,0,0,1.6109,1.6131,1.6136,1.6163,1.6179,1.619,1.6212,1.6222,1.6231,1.6259,1.6271,1.6286,1.6308,1.6315,1.632,1.6327,1.6324,1.6329,1.6327,1.6328,1.6333,1.6331,1.6329,1.6358,1.6358,1.6358,0,0,1.6087,1.6104,1.6109,1.6126,1.615,1.6169,1.6171,1.62,1.6211,1.6223,1.6246,1.6256,1.6278,1.6294,1.6305,1.6292,1.6308,1.6296,1.628,1.6285,1.6283,1.6281,1.6278,1.6276,1.6295,1.6295,1.6295,0,1.6065,1.6083,1.6109,1.6119,1.6131,1.6159,1.6164,1.6179,1.6206,1.6214,1.6222,1.6252,1.6269,1.6281,1.6279,1.6286,1.6289,1.6292,1.6281,1.628,1.6278,1.6276,1.6274,1.6293,1.6294,1.6294,1.6294,0,1.6055,1.6067,1.6068,1.6096,1.6108,1.6115,1.6143,1.6151,1.6168,1.6186,1.6199,1.622,1.624,1.6244,1.6259,1.6259,1.6264,1.6276,1.629,1.6274,1.6272,1.6271,1.6291,1.6292,1.6292,1.6293,0,0,1.6009,1.6054,1.6054,1.6068,1.6098,1.6108,1.6118,1.6138,1.6146,1.6165,1.6174,1.6193,1.6206,1.6218,1.6236,1.624,1.623,1.6252,1.6253,1.6248,1.6233,1.6224,1.6222,1.6241,1.6241,1.6241,1.6231,0,1.5993,1.6012,1.6037,1.6047,1.606,1.6088,1.6097,1.6117,1.6134,1.6148,1.6167,1.6181,1.6196,1.6204,1.6209,1.623,1.6227,1.6231,1.625,1.625,1.6244,1.6221,1.621,1.6201,1.6231,1.623,1.623,0,1.5976,1.5995,1.6007,1.6039,1.6045,1.6052,1.6075,1.6087,1.611,1.6123,1.6138,1.6158,1.617,1.6183,1.62,1.6202,1.6212,1.6223,1.6223,1.6226,1.6239,1.6223,1.6198,1.6197,1.6229,1.6229,1.6229,0,1.5943,1.5971,1.5983,1.5994,1.6031,1.6036,1.6051,1.6076,1.6087,1.6107,1.6115,1.6135,1.6146,1.6161,1.6186,1.6193,1.6201,1.6215,1.6213,1.6212,1.6213,1.6213,1.6189,1.6218,1.6218,1.6218,1.6218,0,1.5922,1.5928,1.5969,1.5976,1.5985,1.6014,1.6022,1.604,1.6062,1.6074,1.6099,1.6109,1.6141,1.6155,1.6175,1.6187,1.6192,1.6203,1.6208,1.6201,1.6199,1.6207,1.6209,1.6218,1.6218,1.6218,1.6218,0,1.5886,1.5913,1.5928,1.5963,1.5972,1.5977,1.6007,1.6016,1.6036,1.6051,1.6056,1.6087,1.6105,1.6132,1.6157,1.6171,1.6181,1.6188,1.6173,1.6176,1.6172,1.6172,1.6153,1.6153,1.6181,1.6181,1.6181,0,1.5871,1.5877,1.5914,1.5924,1.5939,1.5955,1.5967,1.5997,1.6009,1.6039,1.6043,1.6064,1.6082,1.611,1.6135,1.6155,1.6165,1.6157,1.6168,1.6161,1.6166,1.6165,1.6167,1.6154,1.6153,1.6153,1.6153,0,1.5842,1.5856,1.5873,1.5897,1.5912,1.5931,1.5951,1.5958,1.5992,1.6005,1.6025,1.6039,1.6067,1.6087,1.6111,1.6128,1.6146,1.6149,1.615,1.6143,1.6134,1.614,1.6166,1.6149,1.615,1.615,1.615,1.615,1.5817,1.5824,1.5852,1.5871,1.589,1.591,1.592,1.5943,1.596,1.5986,1.6002,1.6021,1.6047,1.6082,1.6098,1.6113,1.6121,1.6121,1.6121,1.6121,1.6119,1.6131,1.6118,1.6118,1.6118,1.6118,1.6118,0,1.579,1.5809,1.5827,1.5856,1.5872,1.589,1.5914,1.5926,1.5943,1.5966,1.5984,1.6007,1.6028,1.6056,1.6078,1.6086,1.6095,1.6091,1.6091,1.6094,1.6111,1.6108,1.6083,1.6083,1.6083,1.6083,1.6083,1.6083,1.5777,1.5792,1.581,1.5834,1.5854,1.5874,1.5887,1.5905,1.5924,1.595,1.5967,1.5986,1.6011,1.6036,1.6056,1.6064,1.6072,1.6065,1.6075,1.609,1.6093,1.6096,1.6094,1.6066,1.6066,1.6058,1.6058,1.6058]}]]